Regional Weather Roundup
Issued by NWS Little Rock, AR

Home | Current Version | Previous Version | Graphics & Text | Print | Product List | Glossary On
Versions: 1 2 3 4 5 6 7 8 9 10 11 12 13 14 15 16 17 18 19 20 21 22 23 24 25 26 27 28 29 30 31 32 33 34 35 36 37 38 39 40 41 42 43 44 45 46 47 48 49 50
754
ASUS44 KLZK 231812
RWRLZK

WEATHER ROUNDUP FOR ARKANSAS
NATIONAL WEATHER SERVICE LITTLE ROCK AR
1200 PM CST THU NOV 23 2017

NOTE: "FAIR" INDICATES FEW OR NO CLOUDS BELOW 12,000 FEET WITH NO
SIGNIFICANT WEATHER AND/OR OBSTRUCTIONS TO VISIBILITY.

ARZ001-003-010-029-231900-
NORTHWEST ARKANSAS

CITY           SKY/WX    TMP DP  RH WIND       PRES   REMARKS
FAYETTEVILLE   SUNNY     58  26  29 W10       30.09F
6HR MIN TEMP:  26; 6HR MAX TEMP:  58;

FORT SMITH     SUNNY     55  25  31 W7        30.13F
6HR MIN TEMP:  31; 6HR MAX TEMP:  56;

HARRISON       SUNNY     59  24  26 W8        30.06F
6HR MIN TEMP:  30; 6HR MAX TEMP:  60;

BENTONVILLE    SUNNY     55  26  32 SW13      30.09F
6HR MIN TEMP:  30; 6HR MAX TEMP:  55;

ROGERS         SUNNY     55  27  34 W9        30.08F
6HR MIN TEMP:  31; 6HR MAX TEMP:  55;

SILOAM SPGS    SUNNY     56  25  30 SW9       30.09F
6HR MIN TEMP:  26; 6HR MAX TEMP:  56;

HIGHFILL       SUNNY     57  26  30 SW10      30.08F
6HR MIN TEMP:  29; 6HR MAX TEMP:  57;

SPRINGDALE     SUNNY     55  25  30 W8        30.11F
$$

ARZ004-005-016-231900-
NORTH CENTRAL ARKANSAS

CITY           SKY/WX    TMP DP  RH WIND       PRES   REMARKS
BATESVILLE     SUNNY     53  26  35 S8        30.11F
6HR MIN TEMP:  25; 6HR MAX TEMP:  53;

FLIPPIN        SUNNY     56  25  30 E3        30.08F
6HR MIN TEMP:  25; 6HR MAX TEMP:  56;

MTN HOME       SUNNY     54  23  30 VRB3      30.07F
6HR MIN TEMP:  27; 6HR MAX TEMP:  54;

$$

ARZ040-041-231900-
WEST CENTRAL ARKANSAS

CITY           SKY/WX    TMP DP  RH WIND       PRES   REMARKS
MENA           SUNNY     59  25  27 SW5       30.13F
MOUNT IDA      SUNNY     57  25  29 VRB5      30.11F
6HR MIN TEMP:  25; 6HR MAX TEMP:  59;

$$

ARZ009-017-025-026-028-231900-
NORTHEAST ARKANSAS

CITY           SKY/WX    TMP DP  RH WIND       PRES   REMARKS
JONESBORO      SUNNY     48  26  42 SW6       30.13F
6HR MIN TEMP:  26; 6HR MAX TEMP:  48;

NEWPORT        SUNNY     49  26  41 S10       30.13F
6HR MIN TEMP:  26; 6HR MAX TEMP:  49;

WALNUT RIDGE     N/A     48  26  42 S8        30.12F
6HR MIN TEMP:  25; 6HR MAX TEMP:  48;

BLYTHEVILLE    SUNNY     48  28  46 CALM      30.13F
6HR MIN TEMP:  26; 6HR MAX TEMP:  48;

$$

ARZ022-023-033-042-044-231900-
CENTRAL ARKANSAS

CITY           SKY/WX    TMP DP  RH WIND       PRES   REMARKS
LITTLE ROCK    MOSUNNY   52  24  33 CALM      30.15F
6HR MIN TEMP:  29; 6HR MAX TEMP:  52;

N LITTLE ROCK    N/A     52  27  38 S3        30.17F
6HR MIN TEMP:  33; 6HR MAX TEMP:  52;

JACKSONVILLE   SUNNY     52  25  34 SW3       30.13F
6HR MIN TEMP:  25; 6HR MAX TEMP:  52;

SEARCY         SUNNY     52  26  36 VRB5      30.14F
6HR MIN TEMP:  24; 6HR MAX TEMP:  52;

HOT SPRINGS    SUNNY     55  26  32 CALM      30.14F
6HR MIN TEMP:  29; 6HR MAX TEMP:  55;

RUSSELLVILLE   SUNNY     52  28  39 VRB3      30.12F
6HR MIN TEMP:  27; 6HR MAX TEMP:  52;

CLINTON        FAIR      52  28  40 CALM      30.11F
$$

ARZ036-231900-
EAST ARKANSAS

CITY           SKY/WX    TMP DP  RH WIND       PRES   REMARKS
WEST MEMPHIS   SUNNY     49  24  37 CALM      30.12F
6HR MIN TEMP:  25; 6HR MAX TEMP:  49;

$$

ARZ050-053-066-070-073-231900-
SOUTHWEST ARKANSAS

CITY           SKY/WX    TMP DP  RH WIND       PRES   REMARKS
ARKADELPHIA    FAIR      54  25  32 VRB5      30.16F
6HR MIN TEMP:  23; 6HR MAX TEMP:  54;

CAMDEN         SUNNY     55  21  26 VRB3      30.16F
TEXARKANA      SUNNY     52  25  35 CALM      30.17F
6HR MIN TEMP:  28; 6HR MAX TEMP:  53;

EL DORADO      SUNNY     53  27  36 N3        30.17F
6HR MIN TEMP:  30; 6HR MAX TEMP:  53;

DE QUEEN       SUNNY     53  28  38 W3        30.14F
6HR MIN TEMP:  27; 6HR MAX TEMP:  53;

$$

ARZ056-057-069-231900-
SOUTHEAST ARKANSAS

CITY           SKY/WX    TMP DP  RH WIND       PRES   REMARKS
PINE BLUFF     SUNNY     52  25  35 S3        30.15F
6HR MIN TEMP:  26; 6HR MAX TEMP:  52;

STUTTGART      SUNNY     50  24  36 CALM      30.15F
6HR MIN TEMP:  27; 6HR MAX TEMP:  50;

MONTICELLO     SUNNY     54  24  31 NE6       30.15F
6HR MIN TEMP:  28; 6HR MAX TEMP:  54;


$$






USA.gov is the U.S. government's official web portal to all federal, state and local government web resources and services.